SL-4 R/B

基本信息
目录编号:
58659
目录名称:
SL-4 R/B
国际标识:
2023-209B
轨道中心:
EARTH
物体状态:
已陨落(2024-05-03)
发射日期:
2023-12-27 UTC
国别:
俄罗斯(独联体) (CIS)
轨道信息
数据来源: 国际轨道数据
星历时间: 2024-05-04T06:19:46+0800
半长轴: 6518.466km
偏心率: 0.0008557
轨道倾角: 96.712°
近地点辐角: 246.689°
升交点赤经: 22.508°
平近点角: 200.070°
近地点: 134.753km
远地点: 145.909km
周期: 87.293分钟
每日圈数: 16.496231
详细信息
发射场:
PKMTR
轨道高度:
LEO
数据来源:
AOE Integration Group
参考系:
TEME
时间系统:
UTC
历元类型:
SGP4
2D轨道图
3D轨道图
轨道高度分析图
轨道倾角分析图
轨道综合分析图
查看轨道综合分析图